sat.trackr.live / text

‹ back to catalog

TIGRISAT

NORAD 40043 · 2014-033AK

PAYLOAD ACTIVE UNKNOWN

§ Identity

Operator
Country
IRAQ
Launch date
2014-06-19
Launch site
DLS
Launch vehicle
Mass (kg)
RCS (m²)
0.06

Purposes: tech_demo

External: N2YO · Heavens-Above · Gunter

§ Orbital elements

Epoch: 2026-09-19T08:43:02.918208Z

Period
96.94 min
Inclination
97.7966°
Eccentricity
0.0050084
Mean motion
14.85446619 rev/d
Perigee alt
577.2 km
Apogee alt
647.2 km
Semi-major
6,990.3 km
B*
1.7091e-4
RAAN
50.3110°
Arg perigee
124.7244°
Mean anomaly
235.8703°
Rev number
65,960

§ Raw data

TIGRISAT1 40043U 14033AK  26262.36322822  .00001451  00000+0  17091-3 0  99992 40043  97.7966  50.3110 0050084 124.7244 235.8703 14.85446619659600

JSON: /api/v1/satellites/40043 · /tle

For live sub-satellite position, see the globe view (requires WebGL).

§ Visibility from observer

Set your observer location to see the next 7 days of passes ≥ 10°. The values pass through the URL so the page stays shareable.

No JS? Fill the form by hand. The geolocation button needs JavaScript.

§ Radio — SatNOGS DB

ModeDescriptionDownlinkUplink
FSK 9k6 FSK TLM 435.000 MHz

1 transmitter · refreshed weekly from db.satnogs.org